When you browse on this site, cookies collect data to enhance your experience and personalize the content and advertising you see.
Visit our Privacy Policy to learn more. By continuing to use the site, you agree to this use of cookies and data.
  • în România
  • Lista ţărilor
  • Pe 7 zile
  • Temperatura apei
  • Hartă satelitară
  • Meteo pe hartă
  • Widget-uri
  • user-avatar
    Intrare

    Meteo pe oră la Can Tho

    Astăzi, 18 Decembrie, Marţi

    Timp Temperatura Precipitaţii Vânt Presiune Umiditate
    00:00 +26°C° 0 mm 2 m/s 759 mmHg 87%
    01:00 +26°C° 0 mm 2 m/s 759 mmHg 87%
    02:00 +26°C° 0 mm 2 m/s 759 mmHg 88%
    03:00 +26°C° 0 mm 2 m/s 759 mmHg 88%
    04:00 +26°C° 0 mm 2 m/s 759 mmHg 88%
    05:00 +26°C° 0 mm 2 m/s 759 mmHg 88%
    06:00 +26°C° 0 mm 2 m/s 759 mmHg 87%
    07:00 +27°C° 0 mm 2 m/s 759 mmHg 86%
    08:00 +28°C° 0 mm 2 m/s 760 mmHg 79%
    09:00 +30°C° 0 mm 3 m/s 760 mmHg 71%
    10:00 +31°C° 0 mm 3 m/s 760 mmHg 63%
    11:00 +33°C° 0 mm 4 m/s 759 mmHg 60%
    12:00 +34°C° 0 mm 4 m/s 758 mmHg 56%
    13:00 +35°C° 0 mm 4 m/s 758 mmHg 53%
    14:00 +35°C° 0 mm 4 m/s 758 mmHg 54%
    15:00 +35°C° 0 mm 3 m/s 757 mmHg 56%
    16:00 +34°C° 0 mm 3 m/s 757 mmHg 57%
    17:00 +33°C° 0 mm 3 m/s 757 mmHg 62%
    18:00 +30°C° 0 mm 3 m/s 757 mmHg 67%
    19:00 +29°C° 0 mm 3 m/s 758 mmHg 72%
    20:00 +28°C° 0 mm 3 m/s 758 mmHg 74%
    21:00 +28°C° 0 mm 3 m/s 758 mmHg 76%
    22:00 +28°C° 0 mm 3 m/s 759 mmHg 78%
    23:00 +28°C° 0 mm 3 m/s 759 mmHg 78%

    Mâine, 19 Decembrie, Miercuri

    Timp Temperatura Precipitaţii Vânt Presiune Umiditate
    00:00 +28°C° 0 mm 3 m/s 759 mmHg 79%
    01:00 +28°C° 0 mm 2 m/s 759 mmHg 79%
    02:00 +28°C° 0 mm 2 m/s 759 mmHg 79%
    03:00 +27°C° 0 mm 2 m/s 758 mmHg 80%
    04:00 +27°C° 0 mm 2 m/s 758 mmHg 80%
    05:00 +27°C° 0 mm 2 m/s 759 mmHg 80%
    06:00 +27°C° 0 mm 2 m/s 759 mmHg 80%
    07:00 +27°C° 0 mm 3 m/s 759 mmHg 80%
    08:00 +29°C° 0 mm 3 m/s 759 mmHg 74%
    09:00 +31°C° 0 mm 3 m/s 760 mmHg 67%
    10:00 +33°C° 0 mm 3 m/s 760 mmHg 61%
    11:00 +34°C° 0.1 mm 3 m/s 759 mmHg 59%
    12:00 +34°C° 0.1 mm 3 m/s 759 mmHg 57%
    13:00 +35°C° 0.1 mm 3 m/s 758 mmHg 55%
    14:00 +35°C° 0.7 mm 3 m/s 758 mmHg 57%
    15:00 +34°C° 0.7 mm 3 m/s 758 mmHg 58%
    16:00 +34°C° 0.7 mm 3 m/s 757 mmHg 60%
    17:00 +31°C° 0.5 mm 3 m/s 758 mmHg 66%
    18:00 +30°C° 0.5 mm 3 m/s 758 mmHg 73%
    19:00 +29°C° 0.5 mm 2 m/s 759 mmHg 79%
    20:00 +28°C° 0.3 mm 2 m/s 759 mmHg 81%
    21:00 +28°C° 0.3 mm 2 m/s 759 mmHg 84%
    22:00 +27°C° 0.3 mm 2 m/s 760 mmHg 86%
    23:00 +27°C° 0.1 mm 2 m/s 759 mmHg 87%

    Poimâine, 20 Decembrie, Joi

    Timp Temperatura Precipitaţii Vânt Presiune Umiditate
    00:00 +27°C° 0.1 mm 2 m/s 759 mmHg 88%
    01:00 +27°C° 0.1 mm 2 m/s 759 mmHg 88%
    02:00 +27°C° 0.1 mm 2 m/s 759 mmHg 89%
    03:00 +26°C° 0.1 mm 2 m/s 759 mmHg 89%
    04:00 +26°C° 0.1 mm 2 m/s 758 mmHg 90%
    05:00 +27°C° 0.1 mm 2 m/s 759 mmHg 89%
    06:00 +27°C° 0.1 mm 2 m/s 759 mmHg 88%
    07:00 +27°C° 0.1 mm 2 m/s 759 mmHg 87%
    08:00 +29°C° 0 mm 2 m/s 759 mmHg 79%
    09:00 +31°C° 0 mm 3 m/s 760 mmHg 71%
    10:00 +33°C° 0 mm 3 m/s 760 mmHg 63%
    11:00 +34°C° 0.1 mm 3 m/s 759 mmHg 60%
    12:00 +34°C° 0.1 mm 3 m/s 758 mmHg 58%
    13:00 +35°C° 0.1 mm 2 m/s 757 mmHg 56%
    14:00 +34°C° 1.6 mm 2 m/s 757 mmHg 58%
    15:00 +34°C° 1.6 mm 2 m/s 756 mmHg 61%
    16:00 +32°C° 1.6 mm 1 m/s 756 mmHg 63%
    17:00 +31°C° 1.4 mm 1 m/s 756 mmHg 69%
    18:00 +29°C° 1.4 mm 2 m/s 757 mmHg 76%
    19:00 +28°C° 1.4 mm 2 m/s 758 mmHg 82%
    20:00 +28°C° 0.1 mm 2 m/s 758 mmHg 84%
    21:00 +27°C° 0.1 mm 2 m/s 758 mmHg 86%
    22:00 +27°C° 0.1 mm 2 m/s 759 mmHg 89%
    23:00 +27°C° 0 mm 2 m/s 759 mmHg 89%

    21 Decembrie, Vineri

    Timp Temperatura Precipitaţii Vânt Presiune Umiditate
    00:00 +26°C° 0 mm 1 m/s 758 mmHg 90%
    01:00 +26°C° 0 mm 1 m/s 758 mmHg 91%
    02:00 +26°C° 0 mm 1 m/s 758 mmHg 91%
    03:00 +26°C° 0 mm 1 m/s 757 mmHg 91%
    04:00 +26°C° 0 mm 1 m/s 757 mmHg 91%
    05:00 +26°C° 0 mm 1 m/s 757 mmHg 90%
    06:00 +27°C° 0 mm 1 m/s 758 mmHg 89%
    07:00 +27°C° 0 mm 1 m/s 758 mmHg 87%
    08:00 +28°C° 0 mm 1 m/s 759 mmHg 80%
    09:00 +30°C° 0 mm 1 m/s 759 mmHg 73%
    10:00 +31°C° 0 mm 2 m/s 759 mmHg 66%
    11:00 +32°C° 0.1 mm 1 m/s 758 mmHg 63%
    12:00 +33°C° 0.1 mm 1 m/s 758 mmHg 60%
    13:00 +33°C° 0.1 mm 1 m/s 757 mmHg 57%
    14:00 +33°C° 0.1 mm 1 m/s 756 mmHg 58%
    15:00 +33°C° 0.1 mm 1 m/s 756 mmHg 59%
    16:00 +33°C° 0.1 mm 1 m/s 755 mmHg 60%
    17:00 +31°C° 0.1 mm 1 m/s 756 mmHg 66%
    18:00 +30°C° 0.1 mm 1 m/s 756 mmHg 71%
    19:00 +29°C° 0.1 mm 1 m/s 757 mmHg 77%
    20:00 +28°C° 0 mm 2 m/s 757 mmHg 80%
    21:00 +28°C° 0 mm 2 m/s 758 mmHg 83%
    22:00 +27°C° 0 mm 2 m/s 758 mmHg 86%
    23:00 +27°C° 0.1 mm 2 m/s 758 mmHg 88%

    22 Decembrie, Sâmbătă

    Timp Temperatura Precipitaţii Vânt Presiune Umiditate
    00:00 +26°C° 0.1 mm 1 m/s 758 mmHg 90%
    01:00 +26°C° 0.1 mm 1 m/s 757 mmHg 91%
    02:00 +26°C° 0.1 mm 1 m/s 757 mmHg 92%
    03:00 +26°C° 0.1 mm 1 m/s 757 mmHg 93%
    04:00 +26°C° 0.1 mm 1 m/s 756 mmHg 93%
    05:00 +26°C° 0 mm 1 m/s 757 mmHg 92%
    06:00 +26°C° 0 mm 1 m/s 757 mmHg 91%
    07:00 +27°C° 0 mm 1 m/s 757 mmHg 90%
    08:00 +28°C° 0.1 mm 1 m/s 758 mmHg 83%
    09:00 +30°C° 0.1 mm 1 m/s 758 mmHg 76%
    10:00 +31°C° 0.1 mm 1 m/s 758 mmHg 69%
    11:00 +32°C° 0.1 mm 1 m/s 757 mmHg 65%
    12:00 +33°C° 0.1 mm 1 m/s 757 mmHg 61%
    13:00 +34°C° 0.1 mm 1 m/s 756 mmHg 57%
    14:00 +34°C° 0.1 mm 1 m/s 755 mmHg 59%
    15:00 +34°C° 0.1 mm 2 m/s 755 mmHg 60%
    16:00 +34°C° 0.1 mm 2 m/s 755 mmHg 61%
    17:00 +32°C° 0.3 mm 2 m/s 755 mmHg 67%
    18:00 +30°C° 0.3 mm 2 m/s 756 mmHg 73%
    19:00 +29°C° 0.3 mm 2 m/s 756 mmHg 79%
    20:00 +28°C° 0.1 mm 2 m/s 757 mmHg 82%
    21:00 +28°C° 0.1 mm 2 m/s 757 mmHg 85%
    22:00 +27°C° 0.1 mm 3 m/s 757 mmHg 87%
    23:00 +27°C° 0.1 mm 3 m/s 757 mmHg 89%

    23 Decembrie, Duminică

    Timp Temperatura Precipitaţii Vânt Presiune Umiditate
    00:00 +27°C° 0.1 mm 2 m/s 757 mmHg 90%
    01:00 +27°C° 0.1 mm 2 m/s 756 mmHg 92%
    02:00 +26°C° 0 mm 2 m/s 756 mmHg 93%
    03:00 +26°C° 0 mm 2 m/s 756 mmHg 93%
    04:00 +26°C° 0 mm 2 m/s 756 mmHg 94%
    05:00 +26°C° 0 mm 2 m/s 756 mmHg 93%
    06:00 +27°C° 0 mm 2 m/s 756 mmHg 92%
    07:00 +27°C° 0 mm 2 m/s 757 mmHg 91%
    08:00 +29°C° 0 mm 2 m/s 757 mmHg 82%
    09:00 +30°C° 0 mm 2 m/s 757 mmHg 72%
    10:00 +33°C° 0 mm 3 m/s 757 mmHg 63%
    11:00 +34°C° 0 mm 3 m/s 756 mmHg 58%
    12:00 +35°C° 0 mm 3 m/s 756 mmHg 53%
    13:00 +36°C° 0 mm 3 m/s 755 mmHg 48%
    14:00 +36°C° 0 mm 3 m/s 755 mmHg 49%
    15:00 +36°C° 0 mm 3 m/s 754 mmHg 51%
    16:00 +35°C° 0 mm 3 m/s 754 mmHg 52%
    17:00 +34°C° 0.1 mm 3 m/s 754 mmHg 58%
    18:00 +31°C° 0.1 mm 3 m/s 755 mmHg 63%
    19:00 +29°C° 0.1 mm 3 m/s 755 mmHg 69%
    20:00 +29°C° 0.1 mm 3 m/s 755 mmHg 71%
    21:00 +28°C° 0.1 mm 3 m/s 756 mmHg 74%
    22:00 +28°C° 0.1 mm 2 m/s 756 mmHg 76%
    23:00 +28°C° 0.2 mm 2 m/s 756 mmHg 77%
    Arată mai mult